RH
65 68 67 74 74 80 75 69 79 95 94 96 97 91 86 92 89 93 93 91 89 88 83 85 85 84 83 83 82 82 82 84 84 81 76 73 70 69
66 70 68 73 74 76 77 71 79 89 87 93 95 95 84 80 87 89 90 91 90 89 89 90 90 88 87 87 87 88 86 85 82 77 76 77 78 78
67 69 69 71 72 76 77 74 75 89 92 94 95 95 92 87 90 86 87 89 92 89 89 91 92 91 90 90 90 90 88 87 86 83 80 79 79 80
70 69 69 72 76 74 75 77 75 90 91 96 98 98 96 86 89 92 83 74 82 86 89 90 92 93 92 92 92 92 92 92 90 89 88 87 87 86
70 70 68 70 75 79 76 78 77 74 93 95 98 97 97 90 97 94 95 94 83 85 87 88 90 93 94 94 94 93 94 93 91 90 90 90 89 89
70 69 67 67 70 78 78 79 79 81 92 94 96 96 96 96 88 93 97 98 95 92 88 85 88 91 92 94 94 94 92 91 91 91 92 92 92 90
71 71 70 70 74 74 74 81 82 84 88 92 96 97 96 99 93 93 91 97 97 97 95 95 96 96 95 94 92 93 92 91 91 92 92 92 93 93
80 72 70 82 80 83 82 82 79 84 88 84 89 90 88 89 87 89 91 99 99 97 93 94 95 95 90 96 92 92 92 92 91 91 92 92 93 92
88 80 73 71 78 74 87 88 90 85 79 79 83 90 89 83 86 93 89 87 92 94 91 93 99 94 93 90 91 92 92 92 91 91 91 92 93 93
90 84 76 75 77 75 81 84 84 86 83 78 74 75 75 80 82 81 85 90 94 98 93 92 99 94 94 93 90 91 91 91 91 90 90 91 92 92
86 83 76 74 81 83 76 85 84 85 88 88 83 84 85 88 82 91 95 95 98 97 98 94 98 96 96 91 94 92 90 90 90 90 89 90 91 92
89 84 92 84 88 84 74 80 86 84 88 94 93 93 91 89 91 79 87 92 91 97 97 94 99 96 95 97 91 94 94 93 91 90 90 91 92 92
92 94 91 96 93 88 78 76 78 77 87 86 89 89 91 93 92 84 83 80 89 88 94 87 96 99 96 92 96 97 95 94 96 94 94 93 93 91
99 98 97 99 98 93 88 80 86 86 84 89 92 90 90 94 93 91 86 86 78 74 91 85 100 88 96 100 94 95 98 96 96 95 95 93 95 94
96 98 99 99 98 98 91 88 92 86 85 91 90 89 87 84 90 92 90 89 88 89 93 89 95 94 92 90 94 98 96 97 98 95 97 97 94 97
95 96 95 97 97 99 99 96 88 86 86 87 89 87 87 92 93 92 95 94 96 94 96 92 90 91 98 91 92 95 96 97 98 97 95 97 96 94
96 92 92 93 96 98 98 98 99 98 98 91 89 90 91 93 93 92 93 96 98 94 94 100 98 94 92 91 100 93 90 98 96 97 99 99 96 93
90 94 95 94 95 96 97 98 98 98 99 99 100 99 94 94 96 99 98 97 97 95 95 96 100 100 100 100 98 94 93 93 95 96 99 99 95 90
93 94 94 94 95 95 96 97 98 98 98 99 100 100 100 100 100 100 99 98 98 97 96 96 100 100 100 98 100 95 100 100 100 100 98 98 96 99
94 94 94 95 95 95 95 95 96 96 97 97 98 98 100 100 100 100 100 100 100 100 100 100 100 100 100 98 100 99 99 99 100 100 100 99 98 97
93 94 94 94 94 95 95 95 96 95 96 96 96 97 98 99 99 100 100 98 98 100 100 100 100 97 100 99 98 99 97 98 98 100 100 99 99 99
93 93 94 94 94 95 95 95 95 95 96 95 95 96 97 97 97 98 98 98 98 100 99 98 100 100 100 100 99 97 97 97 95 93 94 98 100 98
92 93 94 94 94 94 94 95 95 95 95 96 96 96 96 96 96 97 97 97 98 98 97 98 98 98 98 98 96 96 96 97 95 94 96 93 93 92
Wind_Speed
16 14 11 8 8 6 6 9 6 8 11 6 5 7 6 6 7 7 6 9 10 9 9 8 10 8 7 9 11 11 9 7 9 8 9 8 7 6
13 14 13 9 10 8 8 8 4 4 5 4 6 4 9 7 8 8 8 9 11 10 9 7 10 10 9 9 8 10 10 9 9 9 9 9 9 9
16 16 16 13 11 9 8 8 8 4 4 3 3 4 9 10 7 7 7 7 5 12 11 10 10 11 11 10 10 10 10 10 10 10 10 10 10 10
18 18 17 11 13 12 10 11 10 6 4 6 3 3 5 11 10 10 7 6 7 11 13 12 12 12 12 11 11 10 10 10 10 10 10 10 10 10
20 19 19 17 15 11 12 11 9 8 4 4 4 2 2 8 4 4 5 5 5 8 14 13 13 13 12 12 12 12 11 11 12 11 10 11 11 10
18 19 19 19 18 16 13 13 10 9 6 4 4 4 3 4 7 8 5 3 5 4 7 9 12 12 13 13 13 13 12 12 11 11 11 11 10 11
17 17 18 19 20 19 13 13 13 10 8 6 4 3 5 4 11 6 7 4 5 4 5 6 4 6 7 11 9 14 14 13 13 12 12 12 12 11
16 17 17 17 19 20 20 19 17 15 12 10 7 8 10 7 9 8 6 4 6 6 8 6 6 6 7 6 12 14 15 15 14 14 14 13 13 13
18 17 16 13 18 17 19 19 19 20 19 14 14 7 9 10 10 9 12 10 5 3 9 6 5 8 5 7 14 16 16 16 17 16 16 15 14 14
18 20 21 19 19 19 16 16 16 16 16 11 14 12 10 10 14 14 13 6 3 2 5 7 5 7 5 7 14 17 19 19 18 18 18 17 16 15
19 21 20 19 22 23 19 18 16 13 11 13 13 13 15 17 15 7 7 9 4 5 6 5 4 3 4 7 8 18 20 20 20 21 20 19 18 16
16 17 19 19 23 28 20 17 17 15 12 8 5 5 9 14 19 15 11 11 7 5 5 7 4 4 3 4 8 8 9 18 22 21 20 20 19 8
14 13 12 17 18 26 27 17 17 14 14 12 11 9 8 8 10 11 12 11 10 7 6 9 6 4 4 2 3 4 7 6 8 9 18 19 18 16
6 3 8 18 18 24 21 17 15 14 10 11 10 11 11 10 9 10 11 11 9 12 10 14 5 10 6 1 4 2 4 5 5 7 8 9 16 19
9 9 8 8 18 15 22 21 18 11 11 11 12 11 10 10 10 10 11 10 10 7 6 14 6 7 6 7 4 5 4 4 7 7 5 7 9 7
12 10 10 9 11 5 4 12 13 12 13 12 11 10 8 8 10 10 10 10 10 10 7 11 13 8 6 7 6 5 5 5 4 6 6 5 5 7
10 6 7 6 6 6 4 3 3 5 10 10 11 11 11 10 11 10 11 10 11 12 11 4 7 7 7 7 5 9 8 4 5 4 4 5 7 9
9 8 7 7 7 6 5 4 4 4 3 1 3 5 11 12 11 8 9 10 11 12 11 8 5 3 3 1 3 10 9 9 6 7 5 6 9 8
9 9 8 8 7 6 6 5 4 3 5 3 1 3 3 2 2 6 11 11 12 11 11 9 8 11 12 14 5 9 5 2 2 1 5 7 8 3
8 8 8 8 8 7 7 6 5 4 4 4 3 2 1 1 3 3 1 4 4 4 5 3 9 12 14 13 6 2 9 3 2 2 3 2 6 13
8 8 7 7 8 7 6 6 6 6 5 4 4 4 4 2 1 2 3 5 4 3 4 2 0 4 4 6 5 3 4 16 3 3 3 3 3 2
7 7 7 7 7 7 7 6 6 7 6 5 5 5 5 4 3 3 3 1 1 1 3 3 3 3 2 2 4 7 5 5 15 25 23 12 2 6
6 6 6 6 6 6 6 6 6 6 6 6 6 6 6 6 5 5 4 3 3 3 2 2 2 3 2 1 5 6 9 7 4 9 11 21 23 26
Wind_Direction
186 176 177 169 166 156 150 172 156 184 206 208 181 195 187 178 192 183 189 202 203 206 202 177 170 187 194 191 186 188 191 183 182 193 204 202 210 214
184 177 182 174 173 168 165 174 169 146 195 180 209 179 182 188 185 183 193 189 203 202 206 180 182 189 199 197 189 183 189 197 199 206 207 210 218 219
182 179 186 176 179 174 171 177 184 158 143 193 170 181 178 182 180 189 183 193 203 207 205 197 194 198 201 203 205 203 203 207 210 216 222 224 226 228
182 181 185 176 180 178 177 183 188 178 144 162 162 163 182 193 180 182 189 199 197 206 205 206 203 204 206 208 211 211 213 219 222 224 227 232 233 233
183 184 187 184 185 180 180 181 185 187 176 142 164 161 155 178 148 171 182 187 199 198 206 208 207 208 209 213 215 216 218 220 222 224 226 230 232 232
187 190 190 192 189 182 183 181 179 183 178 153 164 164 154 174 182 182 182 185 194 192 210 205 208 208 211 216 217 218 220 222 223 223 222 224 225 231
191 192 194 192 192 185 184 184 178 183 184 180 166 157 173 159 190 174 199 159 203 176 198 213 181 201 217 221 222 220 222 222 220 219 222 223 221 224
195 199 195 185 190 184 190 182 182 182 188 190 188 196 194 186 184 184 166 153 215 195 200 216 179 214 218 202 208 214 214 219 220 220 221 221 221 222
202 197 198 193 191 191 189 180 185 189 190 186 191 188 183 187 172 169 191 196 203 179 185 216 170 221 211 214 209 212 215 216 216 219 223 220 221 221
201 202 196 190 190 186 186 194 196 198 197 191 197 194 187 176 180 191 191 178 84 141 163 199 161 217 196 217 213 214 217 220 218 219 221 220 221 220
200 201 202 192 183 179 185 192 199 204 197 195 190 182 181 174 179 151 169 172 200 204 202 161 183 182 195 226 221 214 218 221 222 223 224 221 219 217
197 200 198 200 180 181 187 190 198 200 192 186 201 204 187 187 179 187 180 186 185 198 199 189 154 152 250 212 217 214 216 223 223 225 224 222 216 217
195 195 194 198 183 188 192 195 199 186 193 192 196 202 193 191 196 199 187 191 194 216 189 174 177 178 214 214 251 208 199 215 212 225 227 223 214 201
324 184 181 174 177 187 187 195 181 179 188 197 197 205 204 198 197 200 204 208 210 212 167 185 181 188 195 176 229 187 217 219 188 219 215 213 214 211
350 20 43 169 169 185 189 197 183 191 195 200 205 208 207 203 191 196 210 211 217 216 171 190 178 178 186 213 207 203 175 224 210 217 203 200 207 194
360 358 23 40 75 86 140 201 202 197 200 204 203 205 197 191 194 193 199 203 211 222 205 195 206 184 196 215 205 218 203 205 186 214 216 222 215 214
-0 14 7 2 19 54 32 32 4 213 191 204 203 197 202 195 202 197 204 202 210 216 220 199 211 221 224 204 202 228 230 213 207 193 156 223 225 218
28 20 26 11 10 22 35 15 23 11 345 98 159 179 201 201 197 199 195 203 209 213 215 202 169 105 40 3 38 236 226 236 208 197 190 218 243 231
36 22 16 20 6 19 16 33 345 30 331 335 91 135 137 116 120 196 197 205 212 208 211 205 192 200 215 229 153 44 228 224 176 170 212 223 261 7
24 25 15 8 10 7 10 2 7 8 33 341 49 41 35 173 145 172 225 178 195 193 182 167 197 207 216 219 181 111 14 223 179 172 142 90 80 80
12 10 12 13 8 360 4 359 2 21 30 16 23 47 42 350 25 149 163 197 208 153 170 165 207 68 103 99 92 104 36 35 79 147 132 127 143 138
7 5 5 6 7 0 2 4 6 20 8 24 17 32 55 53 36 17 33 138 243 275 117 109 125 91 9 119 125 135 125 72 61 69 63 59 198 184
357 4 1 1 358 1 3 12 5 14 13 12 24 16 35 47 33 43 31 25 66 49 68 96 88 57 78 67 114 126 127 109 82 72 65 62 72 86